Index of /20260429/WXO-DD/model_rdps/10km/18/054
Name Last modified Size Description
Parent Directory -
20260429T18Z_MSC_RDPS_AbsoluteVorticity_IsbL-0250_RLatLon0.09_PT054H.grib2 2026-04-29 20:57 596K
20260429T18Z_MSC_RDPS_AbsoluteVorticity_IsbL-0500_RLatLon0.09_PT054H.grib2 2026-04-29 20:57 560K
20260429T18Z_MSC_RDPS_AbsoluteVorticity_IsbL-0700_RLatLon0.09_PT054H.grib2 2026-04-29 20:57 620K
20260429T18Z_MSC_RDPS_AbsoluteVorticity_IsbL-0850_RLatLon0.09_PT054H.grib2 2026-04-29 20:57 767K
20260429T18Z_MSC_RDPS_AirTemp_AGL-120m_RLatLon0.09_PT054H.grib2 2026-04-29 20:57 385K
20260429T18Z_MSC_RDPS_AirTemp_AGL-2m_RLatLon0.09_PT054H.grib2 2026-04-29 20:57 618K
20260429T18Z_MSC_RDPS_AirTemp_AGL-40m_RLatLon0.09_PT054H.grib2 2026-04-29 20:57 395K
20260429T18Z_MSC_RDPS_AirTemp_AGL-80m_RLatLon0.09_PT054H.grib2 2026-04-29 20:57 389K
20260429T18Z_MSC_RDPS_AirTemp_IsbL-0001_RLatLon0.09_PT054H.grib2 2026-04-29 20:57 259K
20260429T18Z_MSC_RDPS_AirTemp_IsbL-0005_RLatLon0.09_PT054H.grib2 2026-04-29 20:57 285K
20260429T18Z_MSC_RDPS_AirTemp_IsbL-0010_RLatLon0.09_PT054H.grib2 2026-04-29 20:57 296K
20260429T18Z_MSC_RDPS_AirTemp_IsbL-0020_RLatLon0.09_PT054H.grib2 2026-04-29 20:57 409K
20260429T18Z_MSC_RDPS_AirTemp_IsbL-0030_RLatLon0.09_PT054H.grib2 2026-04-29 20:57 335K
20260429T18Z_MSC_RDPS_AirTemp_IsbL-0050_RLatLon0.09_PT054H.grib2 2026-04-29 20:57 310K
20260429T18Z_MSC_RDPS_AirTemp_IsbL-0100_RLatLon0.09_PT054H.grib2 2026-04-29 20:57 385K
20260429T18Z_MSC_RDPS_AirTemp_IsbL-0150_RLatLon0.09_PT054H.grib2 2026-04-29 20:57 417K
20260429T18Z_MSC_RDPS_AirTemp_IsbL-0175_RLatLon0.09_PT054H.grib2 2026-04-29 20:57 413K
20260429T18Z_MSC_RDPS_AirTemp_IsbL-0200_RLatLon0.09_PT054H.grib2 2026-04-29 20:57 413K
20260429T18Z_MSC_RDPS_AirTemp_IsbL-0225_RLatLon0.09_PT054H.grib2 2026-04-29 20:57 410K
20260429T18Z_MSC_RDPS_AirTemp_IsbL-0250_RLatLon0.09_PT054H.grib2 2026-04-29 20:57 413K
20260429T18Z_MSC_RDPS_AirTemp_IsbL-0275_RLatLon0.09_PT054H.grib2 2026-04-29 20:57 393K
20260429T18Z_MSC_RDPS_AirTemp_IsbL-0300_RLatLon0.09_PT054H.grib2 2026-04-29 20:57 400K
20260429T18Z_MSC_RDPS_AirTemp_IsbL-0350_RLatLon0.09_PT054H.grib2 2026-04-29 20:57 417K
20260429T18Z_MSC_RDPS_AirTemp_IsbL-0400_RLatLon0.09_PT054H.grib2 2026-04-29 20:57 419K
20260429T18Z_MSC_RDPS_AirTemp_IsbL-0450_RLatLon0.09_PT054H.grib2 2026-04-29 20:57 394K
20260429T18Z_MSC_RDPS_AirTemp_IsbL-0500_RLatLon0.09_PT054H.grib2 2026-04-29 20:57 407K
20260429T18Z_MSC_RDPS_AirTemp_IsbL-0550_RLatLon0.09_PT054H.grib2 2026-04-29 20:57 426K
20260429T18Z_MSC_RDPS_AirTemp_IsbL-0600_RLatLon0.09_PT054H.grib2 2026-04-29 20:57 445K
20260429T18Z_MSC_RDPS_AirTemp_IsbL-0650_RLatLon0.09_PT054H.grib2 2026-04-29 20:57 461K
20260429T18Z_MSC_RDPS_AirTemp_IsbL-0700_RLatLon0.09_PT054H.grib2 2026-04-29 20:57 379K
20260429T18Z_MSC_RDPS_AirTemp_IsbL-0750_RLatLon0.09_PT054H.grib2 2026-04-29 20:57 408K
20260429T18Z_MSC_RDPS_AirTemp_IsbL-0800_RLatLon0.09_PT054H.grib2 2026-04-29 20:57 445K
20260429T18Z_MSC_RDPS_AirTemp_IsbL-0850_RLatLon0.09_PT054H.grib2 2026-04-29 20:57 491K
20260429T18Z_MSC_RDPS_AirTemp_IsbL-0875_RLatLon0.09_PT054H.grib2 2026-04-29 20:57 512K
20260429T18Z_MSC_RDPS_AirTemp_IsbL-0900_RLatLon0.09_PT054H.grib2 2026-04-29 20:57 519K
20260429T18Z_MSC_RDPS_AirTemp_IsbL-0925_RLatLon0.09_PT054H.grib2 2026-04-29 20:57 516K
20260429T18Z_MSC_RDPS_AirTemp_IsbL-0950_RLatLon0.09_PT054H.grib2 2026-04-29 20:57 516K
20260429T18Z_MSC_RDPS_AirTemp_IsbL-0970_RLatLon0.09_PT054H.grib2 2026-04-29 20:57 512K
20260429T18Z_MSC_RDPS_AirTemp_IsbL-0985_RLatLon0.09_PT054H.grib2 2026-04-29 20:57 505K
20260429T18Z_MSC_RDPS_AirTemp_IsbL-1000_RLatLon0.09_PT054H.grib2 2026-04-29 20:57 492K
20260429T18Z_MSC_RDPS_AirTemp_IsbL-1015_RLatLon0.09_PT054H.grib2 2026-04-29 20:57 497K
20260429T18Z_MSC_RDPS_Albedo_Sfc_RLatLon0.09_PT054H.grib2 2026-04-29 20:57 156K
20260429T18Z_MSC_RDPS_CAPE_Sfc_RLatLon0.09_PT054H.grib2 2026-04-29 20:57 1.7M
20260429T18Z_MSC_RDPS_CIN_Sfc_RLatLon0.09_PT054H.grib2 2026-04-29 20:57 1.2M
20260429T18Z_MSC_RDPS_CloudWater_EAtm_RLatLon0.09_PT054H.grib2 2026-04-29 20:57 222K
20260429T18Z_MSC_RDPS_ConvectivePrecip-Accum_Sfc_RLatLon0.09_PT054H.grib2 2026-04-29 20:57 1.0M
20260429T18Z_MSC_RDPS_DewPointDepression_AGL-2m_RLatLon0.09_PT054H.grib2 2026-04-29 20:57 406K
20260429T18Z_MSC_RDPS_DewPointDepression_IsbL-0001_RLatLon0.09_PT054H.grib2 2026-04-29 20:57 193
20260429T18Z_MSC_RDPS_DewPointDepression_IsbL-0005_RLatLon0.09_PT054H.grib2 2026-04-29 20:57 193
20260429T18Z_MSC_RDPS_DewPointDepression_IsbL-0010_RLatLon0.09_PT054H.grib2 2026-04-29 20:57 193
20260429T18Z_MSC_RDPS_DewPointDepression_IsbL-0020_RLatLon0.09_PT054H.grib2 2026-04-29 20:57 193
20260429T18Z_MSC_RDPS_DewPointDepression_IsbL-0030_RLatLon0.09_PT054H.grib2 2026-04-29 20:57 193
20260429T18Z_MSC_RDPS_DewPointDepression_IsbL-0050_RLatLon0.09_PT054H.grib2 2026-04-29 20:57 77K
20260429T18Z_MSC_RDPS_DewPointDepression_IsbL-0100_RLatLon0.09_PT054H.grib2 2026-04-29 20:57 125K
20260429T18Z_MSC_RDPS_DewPointDepression_IsbL-0150_RLatLon0.09_PT054H.grib2 2026-04-29 20:57 152K
20260429T18Z_MSC_RDPS_DewPointDepression_IsbL-0175_RLatLon0.09_PT054H.grib2 2026-04-29 20:57 188K
20260429T18Z_MSC_RDPS_DewPointDepression_IsbL-0200_RLatLon0.09_PT054H.grib2 2026-04-29 20:57 220K
20260429T18Z_MSC_RDPS_DewPointDepression_IsbL-0225_RLatLon0.09_PT054H.grib2 2026-04-29 20:57 255K
20260429T18Z_MSC_RDPS_DewPointDepression_IsbL-0250_RLatLon0.09_PT054H.grib2 2026-04-29 20:57 294K
20260429T18Z_MSC_RDPS_DewPointDepression_IsbL-0275_RLatLon0.09_PT054H.grib2 2026-04-29 20:57 303K
20260429T18Z_MSC_RDPS_DewPointDepression_IsbL-0300_RLatLon0.09_PT054H.grib2 2026-04-29 20:57 319K
20260429T18Z_MSC_RDPS_DewPointDepression_IsbL-0350_RLatLon0.09_PT054H.grib2 2026-04-29 20:57 327K
20260429T18Z_MSC_RDPS_DewPointDepression_IsbL-0400_RLatLon0.09_PT054H.grib2 2026-04-29 20:57 339K
20260429T18Z_MSC_RDPS_DewPointDepression_IsbL-0450_RLatLon0.09_PT054H.grib2 2026-04-29 20:57 352K
20260429T18Z_MSC_RDPS_DewPointDepression_IsbL-0500_RLatLon0.09_PT054H.grib2 2026-04-29 20:57 360K
20260429T18Z_MSC_RDPS_DewPointDepression_IsbL-0550_RLatLon0.09_PT054H.grib2 2026-04-29 20:57 370K
20260429T18Z_MSC_RDPS_DewPointDepression_IsbL-0600_RLatLon0.09_PT054H.grib2 2026-04-29 20:57 383K
20260429T18Z_MSC_RDPS_DewPointDepression_IsbL-0650_RLatLon0.09_PT054H.grib2 2026-04-29 20:57 387K
20260429T18Z_MSC_RDPS_DewPointDepression_IsbL-0700_RLatLon0.09_PT054H.grib2 2026-04-29 20:57 395K
20260429T18Z_MSC_RDPS_DewPointDepression_IsbL-0750_RLatLon0.09_PT054H.grib2 2026-04-29 20:57 415K
20260429T18Z_MSC_RDPS_DewPointDepression_IsbL-0800_RLatLon0.09_PT054H.grib2 2026-04-29 20:57 447K
20260429T18Z_MSC_RDPS_DewPointDepression_IsbL-0850_RLatLon0.09_PT054H.grib2 2026-04-29 20:57 470K
20260429T18Z_MSC_RDPS_DewPointDepression_IsbL-0875_RLatLon0.09_PT054H.grib2 2026-04-29 20:57 472K
20260429T18Z_MSC_RDPS_DewPointDepression_IsbL-0900_RLatLon0.09_PT054H.grib2 2026-04-29 20:57 463K
20260429T18Z_MSC_RDPS_DewPointDepression_IsbL-0925_RLatLon0.09_PT054H.grib2 2026-04-29 20:57 447K
20260429T18Z_MSC_RDPS_DewPointDepression_IsbL-0950_RLatLon0.09_PT054H.grib2 2026-04-29 20:57 439K
20260429T18Z_MSC_RDPS_DewPointDepression_IsbL-0970_RLatLon0.09_PT054H.grib2 2026-04-29 20:57 430K
20260429T18Z_MSC_RDPS_DewPointDepression_IsbL-0985_RLatLon0.09_PT054H.grib2 2026-04-29 20:57 426K
20260429T18Z_MSC_RDPS_DewPointDepression_IsbL-1000_RLatLon0.09_PT054H.grib2 2026-04-29 20:57 419K
20260429T18Z_MSC_RDPS_DewPointDepression_IsbL-1015_RLatLon0.09_PT054H.grib2 2026-04-29 20:57 407K
20260429T18Z_MSC_RDPS_DewPoint_AGL-2m_RLatLon0.09_PT054H.grib2 2026-04-29 20:57 389K
20260429T18Z_MSC_RDPS_DownwardLongwaveRadiationFlux-Accum_Sfc_RLatLon0.09_PT054H.grib2 2026-04-29 20:57 379K
20260429T18Z_MSC_RDPS_DownwardShortwaveRadiationFlux-Accum_NTAtm_RLatLon0.09_PT054H.grib2 2026-04-29 20:57 111K
20260429T18Z_MSC_RDPS_DownwardShortwaveRadiationFlux-Accum_Sfc_RLatLon0.09_PT054H.grib2 2026-04-29 20:57 582K
20260429T18Z_MSC_RDPS_FreezingRain-Accum12h_Sfc_RLatLon0.09_PT054H.grib2 2026-04-29 20:57 66K
20260429T18Z_MSC_RDPS_FreezingRain-Accum1h_Sfc_RLatLon0.09_PT054H.grib2 2026-04-29 20:57 20K
20260429T18Z_MSC_RDPS_FreezingRain-Accum24h_Sfc_RLatLon0.09_PT054H.grib2 2026-04-29 20:57 105K
20260429T18Z_MSC_RDPS_FreezingRain-Accum3h_Sfc_RLatLon0.09_PT054H.grib2 2026-04-29 20:57 24K
20260429T18Z_MSC_RDPS_FreezingRain-Accum6h_Sfc_RLatLon0.09_PT054H.grib2 2026-04-29 20:57 32K
20260429T18Z_MSC_RDPS_FreezingRain-Accum_Sfc_RLatLon0.09_PT054H.grib2 2026-04-29 20:57 177K
20260429T18Z_MSC_RDPS_GeopotentialHeight_IsbL-0001_RLatLon0.09_PT054H.grib2 2026-04-29 20:57 336K
20260429T18Z_MSC_RDPS_GeopotentialHeight_IsbL-0005_RLatLon0.09_PT054H.grib2 2026-04-29 20:57 298K
20260429T18Z_MSC_RDPS_GeopotentialHeight_IsbL-0010_RLatLon0.09_PT054H.grib2 2026-04-29 20:57 301K
20260429T18Z_MSC_RDPS_GeopotentialHeight_IsbL-0020_RLatLon0.09_PT054H.grib2 2026-04-29 20:57 300K
20260429T18Z_MSC_RDPS_GeopotentialHeight_IsbL-0030_RLatLon0.09_PT054H.grib2 2026-04-29 20:57 302K
20260429T18Z_MSC_RDPS_GeopotentialHeight_IsbL-0050_RLatLon0.09_PT054H.grib2 2026-04-29 20:57 303K
20260429T18Z_MSC_RDPS_GeopotentialHeight_IsbL-0100_RLatLon0.09_PT054H.grib2 2026-04-29 20:57 282K
20260429T18Z_MSC_RDPS_GeopotentialHeight_IsbL-0150_RLatLon0.09_PT054H.grib2 2026-04-29 20:57 227K
20260429T18Z_MSC_RDPS_GeopotentialHeight_IsbL-0175_RLatLon0.09_PT054H.grib2 2026-04-29 20:57 230K
20260429T18Z_MSC_RDPS_GeopotentialHeight_IsbL-0200_RLatLon0.09_PT054H.grib2 2026-04-29 20:57 263K
20260429T18Z_MSC_RDPS_GeopotentialHeight_IsbL-0225_RLatLon0.09_PT054H.grib2 2026-04-29 20:57 265K
20260429T18Z_MSC_RDPS_GeopotentialHeight_IsbL-0250_RLatLon0.09_PT054H.grib2 2026-04-29 20:57 265K
20260429T18Z_MSC_RDPS_GeopotentialHeight_IsbL-0275_RLatLon0.09_PT054H.grib2 2026-04-29 20:57 264K
20260429T18Z_MSC_RDPS_GeopotentialHeight_IsbL-0300_RLatLon0.09_PT054H.grib2 2026-04-29 20:57 263K
20260429T18Z_MSC_RDPS_GeopotentialHeight_IsbL-0350_RLatLon0.09_PT054H.grib2 2026-04-29 20:57 229K
20260429T18Z_MSC_RDPS_GeopotentialHeight_IsbL-0400_RLatLon0.09_PT054H.grib2 2026-04-29 20:57 226K
20260429T18Z_MSC_RDPS_GeopotentialHeight_IsbL-0450_RLatLon0.09_PT054H.grib2 2026-04-29 20:57 295K
20260429T18Z_MSC_RDPS_GeopotentialHeight_IsbL-0500_RLatLon0.09_PT054H.grib2 2026-04-29 20:57 290K
20260429T18Z_MSC_RDPS_GeopotentialHeight_IsbL-0550_RLatLon0.09_PT054H.grib2 2026-04-29 20:57 287K
20260429T18Z_MSC_RDPS_GeopotentialHeight_IsbL-0600_RLatLon0.09_PT054H.grib2 2026-04-29 20:57 284K
20260429T18Z_MSC_RDPS_GeopotentialHeight_IsbL-0650_RLatLon0.09_PT054H.grib2 2026-04-29 20:57 254K
20260429T18Z_MSC_RDPS_GeopotentialHeight_IsbL-0700_RLatLon0.09_PT054H.grib2 2026-04-29 20:57 253K
20260429T18Z_MSC_RDPS_GeopotentialHeight_IsbL-0750_RLatLon0.09_PT054H.grib2 2026-04-29 20:57 337K
20260429T18Z_MSC_RDPS_GeopotentialHeight_IsbL-0800_RLatLon0.09_PT054H.grib2 2026-04-29 20:57 343K
20260429T18Z_MSC_RDPS_GeopotentialHeight_IsbL-0850_RLatLon0.09_PT054H.grib2 2026-04-29 20:57 350K
20260429T18Z_MSC_RDPS_GeopotentialHeight_IsbL-0875_RLatLon0.09_PT054H.grib2 2026-04-29 20:57 354K
20260429T18Z_MSC_RDPS_GeopotentialHeight_IsbL-0900_RLatLon0.09_PT054H.grib2 2026-04-29 20:57 358K
20260429T18Z_MSC_RDPS_GeopotentialHeight_IsbL-0925_RLatLon0.09_PT054H.grib2 2026-04-29 20:57 393K
20260429T18Z_MSC_RDPS_GeopotentialHeight_IsbL-0950_RLatLon0.09_PT054H.grib2 2026-04-29 20:57 395K
20260429T18Z_MSC_RDPS_GeopotentialHeight_IsbL-0970_RLatLon0.09_PT054H.grib2 2026-04-29 20:57 401K
20260429T18Z_MSC_RDPS_GeopotentialHeight_IsbL-0985_RLatLon0.09_PT054H.grib2 2026-04-29 20:57 410K
20260429T18Z_MSC_RDPS_GeopotentialHeight_IsbL-1000_RLatLon0.09_PT054H.grib2 2026-04-29 20:57 422K
20260429T18Z_MSC_RDPS_GeopotentialHeight_IsbL-1015_RLatLon0.09_PT054H.grib2 2026-04-29 20:57 437K
20260429T18Z_MSC_RDPS_Humidex_Sfc_RLatLon0.09_PT054H.grib2 2026-04-29 20:57 2.4M
20260429T18Z_MSC_RDPS_IcePellets-Accum12h_Sfc_RLatLon0.09_PT054H.grib2 2026-04-29 20:57 13K
20260429T18Z_MSC_RDPS_IcePellets-Accum1h_Sfc_RLatLon0.09_PT054H.grib2 2026-04-29 20:57 4.7K
20260429T18Z_MSC_RDPS_IcePellets-Accum24h_Sfc_RLatLon0.09_PT054H.grib2 2026-04-29 20:57 17K
20260429T18Z_MSC_RDPS_IcePellets-Accum3h_Sfc_RLatLon0.09_PT054H.grib2 2026-04-29 20:57 6.6K
20260429T18Z_MSC_RDPS_IcePellets-Accum6h_Sfc_RLatLon0.09_PT054H.grib2 2026-04-29 20:57 8.6K
20260429T18Z_MSC_RDPS_IcePellets-Accum_Sfc_RLatLon0.09_PT054H.grib2 2026-04-29 20:57 22K
20260429T18Z_MSC_RDPS_KIndex_Sfc_RLatLon0.09_PT054H.grib2 2026-04-29 20:57 2.4M
20260429T18Z_MSC_RDPS_LatentHeatNetFlux_Sfc_RLatLon0.09_PT054H.grib2 2026-04-29 20:57 351K
20260429T18Z_MSC_RDPS_LiftedIndex-MU-VT_IsbL-0500_RLatLon0.09_PT054H.grib2 2026-04-29 20:57 2.4M
20260429T18Z_MSC_RDPS_NetLongwaveRadiationFlux-Accum_Sfc_RLatLon0.09_PT054H.grib2 2026-04-29 20:57 556K
20260429T18Z_MSC_RDPS_NetShortwaveRadiationFlux-Accum_Sfc_RLatLon0.09_PT054H.grib2 2026-04-29 20:57 585K
20260429T18Z_MSC_RDPS_PlanetaryBoundaryLayerHeight_Sfc_RLatLon0.09_PT054H.grib2 2026-04-29 20:57 1.0M
20260429T18Z_MSC_RDPS_Precip-Accum12h_Sfc_RLatLon0.09_PT054H.grib2 2026-04-29 20:57 1.6M
20260429T18Z_MSC_RDPS_Precip-Accum1h_Sfc_RLatLon0.09_PT054H.grib2 2026-04-29 20:57 1.3M
20260429T18Z_MSC_RDPS_Precip-Accum24h_Sfc_RLatLon0.09_PT054H.grib2 2026-04-29 20:57 1.8M
20260429T18Z_MSC_RDPS_Precip-Accum3h_Sfc_RLatLon0.09_PT054H.grib2 2026-04-29 20:57 1.3M
20260429T18Z_MSC_RDPS_Precip-Accum6h_Sfc_RLatLon0.09_PT054H.grib2 2026-04-29 20:57 1.4M
20260429T18Z_MSC_RDPS_Precip-Accum_Sfc_RLatLon0.09_PT054H.grib2 2026-04-29 20:57 2.0M
20260429T18Z_MSC_RDPS_PrecipRate_Sfc_RLatLon0.09_PT054H.grib2 2026-04-29 20:57 186K
20260429T18Z_MSC_RDPS_PrecipType-Instant_Sfc_RLatLon0.09_PT054H.grib2 2026-04-29 20:57 574K
20260429T18Z_MSC_RDPS_Pressure-Trend3h_Sfc_RLatLon0.09_PT054H.grib2 2026-04-29 20:57 1.2M
20260429T18Z_MSC_RDPS_Pressure_MSL_RLatLon0.09_PT054H.grib2 2026-04-29 20:57 323K
20260429T18Z_MSC_RDPS_Pressure_PVU-1.5_RLatLon0.09_PT054H.grib2 2026-04-29 20:57 2.5M
20260429T18Z_MSC_RDPS_Pressure_PVU-1_RLatLon0.09_PT054H.grib2 2026-04-29 20:57 2.4M
20260429T18Z_MSC_RDPS_Pressure_PVU-2_RLatLon0.09_PT054H.grib2 2026-04-29 20:57 2.4M
20260429T18Z_MSC_RDPS_Pressure_Sfc_RLatLon0.09_PT054H.grib2 2026-04-29 20:57 497K
20260429T18Z_MSC_RDPS_RadiativeTemp_Sfc_RLatLon0.09_PT054H.grib2 2026-04-29 20:57 313K
20260429T18Z_MSC_RDPS_Rain-Accum12h_Sfc_RLatLon0.09_PT054H.grib2 2026-04-29 20:57 1.1M
20260429T18Z_MSC_RDPS_Rain-Accum1h_Sfc_RLatLon0.09_PT054H.grib2 2026-04-29 20:57 619K
20260429T18Z_MSC_RDPS_Rain-Accum24h_Sfc_RLatLon0.09_PT054H.grib2 2026-04-29 20:57 1.3M
20260429T18Z_MSC_RDPS_Rain-Accum3h_Sfc_RLatLon0.09_PT054H.grib2 2026-04-29 20:57 662K
20260429T18Z_MSC_RDPS_Rain-Accum6h_Sfc_RLatLon0.09_PT054H.grib2 2026-04-29 20:57 921K
20260429T18Z_MSC_RDPS_Rain-Accum_Sfc_RLatLon0.09_PT054H.grib2 2026-04-29 20:57 1.6M
20260429T18Z_MSC_RDPS_RelativeHumidity_AGL-2m_RLatLon0.09_PT054H.grib2 2026-04-29 20:57 1.0M
20260429T18Z_MSC_RDPS_RelativeHumidity_IsbL-0010_RLatLon0.09_PT054H.grib2 2026-04-29 20:57 619K
20260429T18Z_MSC_RDPS_RelativeHumidity_IsbL-0020_RLatLon0.09_PT054H.grib2 2026-04-29 20:57 670K
20260429T18Z_MSC_RDPS_RelativeHumidity_IsbL-0030_RLatLon0.09_PT054H.grib2 2026-04-29 20:57 605K
20260429T18Z_MSC_RDPS_RelativeHumidity_IsbL-0050_RLatLon0.09_PT054H.grib2 2026-04-29 20:57 311K
20260429T18Z_MSC_RDPS_RelativeHumidity_IsbL-0100_RLatLon0.09_PT054H.grib2 2026-04-29 20:57 273K
20260429T18Z_MSC_RDPS_RelativeHumidity_IsbL-0150_RLatLon0.09_PT054H.grib2 2026-04-29 20:57 401K
20260429T18Z_MSC_RDPS_RelativeHumidity_IsbL-0175_RLatLon0.09_PT054H.grib2 2026-04-29 20:57 473K
20260429T18Z_MSC_RDPS_RelativeHumidity_IsbL-0200_RLatLon0.09_PT054H.grib2 2026-04-29 20:57 554K
20260429T18Z_MSC_RDPS_RelativeHumidity_IsbL-0225_RLatLon0.09_PT054H.grib2 2026-04-29 20:57 619K
20260429T18Z_MSC_RDPS_RelativeHumidity_IsbL-0250_RLatLon0.09_PT054H.grib2 2026-04-29 20:57 682K
20260429T18Z_MSC_RDPS_RelativeHumidity_IsbL-0275_RLatLon0.09_PT054H.grib2 2026-04-29 20:57 701K
20260429T18Z_MSC_RDPS_RelativeHumidity_IsbL-0300_RLatLon0.09_PT054H.grib2 2026-04-29 20:57 741K
20260429T18Z_MSC_RDPS_RelativeHumidity_IsbL-0350_RLatLon0.09_PT054H.grib2 2026-04-29 20:57 764K
20260429T18Z_MSC_RDPS_RelativeHumidity_IsbL-0400_RLatLon0.09_PT054H.grib2 2026-04-29 20:57 784K
20260429T18Z_MSC_RDPS_RelativeHumidity_IsbL-0450_RLatLon0.09_PT054H.grib2 2026-04-29 20:57 800K
20260429T18Z_MSC_RDPS_RelativeHumidity_IsbL-0500_RLatLon0.09_PT054H.grib2 2026-04-29 20:57 810K
20260429T18Z_MSC_RDPS_RelativeHumidity_IsbL-0550_RLatLon0.09_PT054H.grib2 2026-04-29 20:57 830K
20260429T18Z_MSC_RDPS_RelativeHumidity_IsbL-0600_RLatLon0.09_PT054H.grib2 2026-04-29 20:57 849K
20260429T18Z_MSC_RDPS_RelativeHumidity_IsbL-0650_RLatLon0.09_PT054H.grib2 2026-04-29 20:57 859K
20260429T18Z_MSC_RDPS_RelativeHumidity_IsbL-0700_RLatLon0.09_PT054H.grib2 2026-04-29 20:57 888K
20260429T18Z_MSC_RDPS_RelativeHumidity_IsbL-0750_RLatLon0.09_PT054H.grib2 2026-04-29 20:57 929K
20260429T18Z_MSC_RDPS_RelativeHumidity_IsbL-0800_RLatLon0.09_PT054H.grib2 2026-04-29 20:57 1.0M
20260429T18Z_MSC_RDPS_RelativeHumidity_IsbL-0850_RLatLon0.09_PT054H.grib2 2026-04-29 20:57 1.0M
20260429T18Z_MSC_RDPS_RelativeHumidity_IsbL-0875_RLatLon0.09_PT054H.grib2 2026-04-29 20:57 1.0M
20260429T18Z_MSC_RDPS_RelativeHumidity_IsbL-0900_RLatLon0.09_PT054H.grib2 2026-04-29 20:57 1.1M
20260429T18Z_MSC_RDPS_RelativeHumidity_IsbL-0925_RLatLon0.09_PT054H.grib2 2026-04-29 20:57 1.1M
20260429T18Z_MSC_RDPS_RelativeHumidity_IsbL-0950_RLatLon0.09_PT054H.grib2 2026-04-29 20:57 1.0M
20260429T18Z_MSC_RDPS_RelativeHumidity_IsbL-0970_RLatLon0.09_PT054H.grib2 2026-04-29 20:57 1.0M
20260429T18Z_MSC_RDPS_RelativeHumidity_IsbL-0985_RLatLon0.09_PT054H.grib2 2026-04-29 20:57 1.0M
20260429T18Z_MSC_RDPS_RelativeHumidity_IsbL-1000_RLatLon0.09_PT054H.grib2 2026-04-29 20:57 1.0M
20260429T18Z_MSC_RDPS_RelativeHumidity_IsbL-1015_RLatLon0.09_PT054H.grib2 2026-04-29 20:57 1.0M
20260429T18Z_MSC_RDPS_Runoff-Accum_Sfc_RLatLon0.09_PT054H.grib2 2026-04-29 20:57 57K
20260429T18Z_MSC_RDPS_SWEATIndex_Sfc_RLatLon0.09_PT054H.grib2 2026-04-29 20:57 2.4M
20260429T18Z_MSC_RDPS_SeeingIndex_EAtm_RLatLon0.09_PT054H.grib2 2026-04-29 20:57 1.0M
20260429T18Z_MSC_RDPS_SensibleHeatNetFlux_Sfc_RLatLon0.09_PT054H.grib2 2026-04-29 20:57 232K
20260429T18Z_MSC_RDPS_ShowalterIndex_IsbL-0500_RLatLon0.09_PT054H.grib2 2026-04-29 20:57 2.6M
20260429T18Z_MSC_RDPS_SkyTransparencyIndex_EAtm_RLatLon0.09_PT054H.grib2 2026-04-29 20:57 713K
20260429T18Z_MSC_RDPS_Snow-Accum12h_Sfc_RLatLon0.09_PT054H.grib2 2026-04-29 20:57 562K
20260429T18Z_MSC_RDPS_Snow-Accum1h_Sfc_RLatLon0.09_PT054H.grib2 2026-04-29 20:57 462K
20260429T18Z_MSC_RDPS_Snow-Accum24h_Sfc_RLatLon0.09_PT054H.grib2 2026-04-29 20:57 642K
20260429T18Z_MSC_RDPS_Snow-Accum3h_Sfc_RLatLon0.09_PT054H.grib2 2026-04-29 20:57 411K
20260429T18Z_MSC_RDPS_Snow-Accum6h_Sfc_RLatLon0.09_PT054H.grib2 2026-04-29 20:57 541K
20260429T18Z_MSC_RDPS_Snow-Accum_Sfc_RLatLon0.09_PT054H.grib2 2026-04-29 20:57 741K
20260429T18Z_MSC_RDPS_SnowDensity_Sfc_RLatLon0.09_PT054H.grib2 2026-04-29 20:57 176K
20260429T18Z_MSC_RDPS_SnowDepth_Sfc_RLatLon0.09_PT054H.grib2 2026-04-29 20:57 670K
20260429T18Z_MSC_RDPS_SoilTemp_DBS-0to10cm_RLatLon0.09_PT054H.grib2 2026-04-29 20:57 244K
20260429T18Z_MSC_RDPS_SoilTemp_Sfc_RLatLon0.09_PT054H.grib2 2026-04-29 20:57 285K
20260429T18Z_MSC_RDPS_SoilVolumetricIceContent_Sfc_RLatLon0.09_PT054H.grib2 2026-04-29 20:57 161K
20260429T18Z_MSC_RDPS_SoilVolumetricWaterContent_DBS-0to10cm_RLatLon0.09_PT054H.grib2 2026-04-29 20:57 271K
20260429T18Z_MSC_RDPS_SoilVolumetricWaterContent_DBS-0to1cm_RLatLon0.09_PT054H.grib2 2026-04-29 20:57 339K
20260429T18Z_MSC_RDPS_SpecificHumidity_AGL-120m_RLatLon0.09_PT054H.grib2 2026-04-29 20:57 484K
20260429T18Z_MSC_RDPS_SpecificHumidity_AGL-2m_RLatLon0.09_PT054H.grib2 2026-04-29 20:57 651K
20260429T18Z_MSC_RDPS_SpecificHumidity_AGL-40m_RLatLon0.09_PT054H.grib2 2026-04-29 20:57 489K
20260429T18Z_MSC_RDPS_SpecificHumidity_AGL-80m_RLatLon0.09_PT054H.grib2 2026-04-29 20:57 485K
20260429T18Z_MSC_RDPS_SpecificHumidity_IsbL-0001_RLatLon0.09_PT054H.grib2 2026-04-29 20:57 362K
20260429T18Z_MSC_RDPS_SpecificHumidity_IsbL-0005_RLatLon0.09_PT054H.grib2 2026-04-29 20:57 359K
20260429T18Z_MSC_RDPS_SpecificHumidity_IsbL-0010_RLatLon0.09_PT054H.grib2 2026-04-29 20:57 394K
20260429T18Z_MSC_RDPS_SpecificHumidity_IsbL-0020_RLatLon0.09_PT054H.grib2 2026-04-29 20:57 379K
20260429T18Z_MSC_RDPS_SpecificHumidity_IsbL-0030_RLatLon0.09_PT054H.grib2 2026-04-29 20:57 369K
20260429T18Z_MSC_RDPS_SpecificHumidity_IsbL-0050_RLatLon0.09_PT054H.grib2 2026-04-29 20:57 479K
20260429T18Z_MSC_RDPS_SpecificHumidity_IsbL-0100_RLatLon0.09_PT054H.grib2 2026-04-29 20:57 421K
20260429T18Z_MSC_RDPS_SpecificHumidity_IsbL-0150_RLatLon0.09_PT054H.grib2 2026-04-29 20:57 446K
20260429T18Z_MSC_RDPS_SpecificHumidity_IsbL-0175_RLatLon0.09_PT054H.grib2 2026-04-29 20:57 429K
20260429T18Z_MSC_RDPS_SpecificHumidity_IsbL-0200_RLatLon0.09_PT054H.grib2 2026-04-29 20:57 446K
20260429T18Z_MSC_RDPS_SpecificHumidity_IsbL-0225_RLatLon0.09_PT054H.grib2 2026-04-29 20:57 449K
20260429T18Z_MSC_RDPS_SpecificHumidity_IsbL-0250_RLatLon0.09_PT054H.grib2 2026-04-29 20:57 552K
20260429T18Z_MSC_RDPS_SpecificHumidity_IsbL-0275_RLatLon0.09_PT054H.grib2 2026-04-29 20:57 466K
20260429T18Z_MSC_RDPS_SpecificHumidity_IsbL-0300_RLatLon0.09_PT054H.grib2 2026-04-29 20:57 561K
20260429T18Z_MSC_RDPS_SpecificHumidity_IsbL-0350_RLatLon0.09_PT054H.grib2 2026-04-29 20:57 557K
20260429T18Z_MSC_RDPS_SpecificHumidity_IsbL-0400_RLatLon0.09_PT054H.grib2 2026-04-29 20:57 515K
20260429T18Z_MSC_RDPS_SpecificHumidity_IsbL-0450_RLatLon0.09_PT054H.grib2 2026-04-29 20:57 576K
20260429T18Z_MSC_RDPS_SpecificHumidity_IsbL-0500_RLatLon0.09_PT054H.grib2 2026-04-29 20:57 514K
20260429T18Z_MSC_RDPS_SpecificHumidity_IsbL-0550_RLatLon0.09_PT054H.grib2 2026-04-29 20:57 590K
20260429T18Z_MSC_RDPS_SpecificHumidity_IsbL-0600_RLatLon0.09_PT054H.grib2 2026-04-29 20:57 641K
20260429T18Z_MSC_RDPS_SpecificHumidity_IsbL-0650_RLatLon0.09_PT054H.grib2 2026-04-29 20:57 556K
20260429T18Z_MSC_RDPS_SpecificHumidity_IsbL-0700_RLatLon0.09_PT054H.grib2 2026-04-29 20:57 598K
20260429T18Z_MSC_RDPS_SpecificHumidity_IsbL-0750_RLatLon0.09_PT054H.grib2 2026-04-29 20:57 655K
20260429T18Z_MSC_RDPS_SpecificHumidity_IsbL-0800_RLatLon0.09_PT054H.grib2 2026-04-29 20:57 737K
20260429T18Z_MSC_RDPS_SpecificHumidity_IsbL-0850_RLatLon0.09_PT054H.grib2 2026-04-29 20:57 806K
20260429T18Z_MSC_RDPS_SpecificHumidity_IsbL-0875_RLatLon0.09_PT054H.grib2 2026-04-29 20:57 832K
20260429T18Z_MSC_RDPS_SpecificHumidity_IsbL-0900_RLatLon0.09_PT054H.grib2 2026-04-29 20:57 845K
20260429T18Z_MSC_RDPS_SpecificHumidity_IsbL-0925_RLatLon0.09_PT054H.grib2 2026-04-29 20:57 705K
20260429T18Z_MSC_RDPS_SpecificHumidity_IsbL-0950_RLatLon0.09_PT054H.grib2 2026-04-29 20:57 704K
20260429T18Z_MSC_RDPS_SpecificHumidity_IsbL-0970_RLatLon0.09_PT054H.grib2 2026-04-29 20:57 694K
20260429T18Z_MSC_RDPS_SpecificHumidity_IsbL-0985_RLatLon0.09_PT054H.grib2 2026-04-29 20:57 684K
20260429T18Z_MSC_RDPS_SpecificHumidity_IsbL-1000_RLatLon0.09_PT054H.grib2 2026-04-29 20:57 676K
20260429T18Z_MSC_RDPS_SpecificHumidity_IsbL-1015_RLatLon0.09_PT054H.grib2 2026-04-29 20:57 663K
20260429T18Z_MSC_RDPS_SpecificHumidity_Sfc_RLatLon0.09_PT054H.grib2 2026-04-29 20:57 332K
20260429T18Z_MSC_RDPS_StormRelativeHelicity_EtaL-10000_RLatLon0.09_PT054H.grib2 2026-04-29 20:57 1.1M
20260429T18Z_MSC_RDPS_StormSeverityIndex_EtaL-10000_RLatLon0.09_PT054H.grib2 2026-04-29 20:57 1.2M
20260429T18Z_MSC_RDPS_Thickness_IsbL-0850to0700_RLatLon0.09_PT054H.grib2 2026-04-29 20:57 175K
20260429T18Z_MSC_RDPS_Thickness_IsbL-1000to0500_RLatLon0.09_PT054H.grib2 2026-04-29 20:57 196K
20260429T18Z_MSC_RDPS_Thickness_IsbL-1000to0850_RLatLon0.09_PT054H.grib2 2026-04-29 20:57 183K
20260429T18Z_MSC_RDPS_TotalCloudCover_Sfc_RLatLon0.09_PT054H.grib2 2026-04-29 20:57 644K
20260429T18Z_MSC_RDPS_TotalTotalsIndex_Sfc_RLatLon0.09_PT054H.grib2 2026-04-29 20:57 2.4M
20260429T18Z_MSC_RDPS_UVIndex-ClearSky_Sfc_RLatLon0.09_PT054H.grib2 2026-04-29 20:57 186K
20260429T18Z_MSC_RDPS_UVIndex_Sfc_RLatLon0.09_PT054H.grib2 2026-04-29 20:57 390K
20260429T18Z_MSC_RDPS_UpwardLongwaveRadiationFlux_NTAtm_RLatLon0.09_PT054H.grib2 2026-04-29 20:57 484K
20260429T18Z_MSC_RDPS_UpwardShortwaveRadiationFlux_NTAtm_RLatLon0.09_PT054H.grib2 2026-04-29 20:57 333K
20260429T18Z_MSC_RDPS_VerticalVelocity_IsbL-0250_RLatLon0.09_PT054H.grib2 2026-04-29 20:57 540K
20260429T18Z_MSC_RDPS_VerticalVelocity_IsbL-0500_RLatLon0.09_PT054H.grib2 2026-04-29 20:57 495K
20260429T18Z_MSC_RDPS_VerticalVelocity_IsbL-0700_RLatLon0.09_PT054H.grib2 2026-04-29 20:57 554K
20260429T18Z_MSC_RDPS_VerticalVelocity_IsbL-0850_RLatLon0.09_PT054H.grib2 2026-04-29 20:57 708K
20260429T18Z_MSC_RDPS_VerticalWindShear_EtaL-6500_RLatLon0.09_PT054H.grib2 2026-04-29 20:57 1.2M
20260429T18Z_MSC_RDPS_WindChill_Sfc_RLatLon0.09_PT054H.grib2 2026-04-29 20:57 1.1M
20260429T18Z_MSC_RDPS_WindDir_AGL-10m_RLatLon0.09_PT054H.grib2 2026-04-29 20:57 942K
20260429T18Z_MSC_RDPS_WindDir_AGL-120m_RLatLon0.09_PT054H.grib2 2026-04-29 20:57 591K
20260429T18Z_MSC_RDPS_WindDir_AGL-40m_RLatLon0.09_PT054H.grib2 2026-04-29 20:57 616K
20260429T18Z_MSC_RDPS_WindDir_AGL-80m_RLatLon0.09_PT054H.grib2 2026-04-29 20:57 601K
20260429T18Z_MSC_RDPS_WindDir_IsbL-0001_RLatLon0.09_PT054H.grib2 2026-04-29 20:57 303K
20260429T18Z_MSC_RDPS_WindDir_IsbL-0005_RLatLon0.09_PT054H.grib2 2026-04-29 20:57 357K
20260429T18Z_MSC_RDPS_WindDir_IsbL-0010_RLatLon0.09_PT054H.grib2 2026-04-29 20:57 386K
20260429T18Z_MSC_RDPS_WindDir_IsbL-0020_RLatLon0.09_PT054H.grib2 2026-04-29 20:57 432K
20260429T18Z_MSC_RDPS_WindDir_IsbL-0030_RLatLon0.09_PT054H.grib2 2026-04-29 20:57 414K
20260429T18Z_MSC_RDPS_WindDir_IsbL-0050_RLatLon0.09_PT054H.grib2 2026-04-29 20:57 414K
20260429T18Z_MSC_RDPS_WindDir_IsbL-0100_RLatLon0.09_PT054H.grib2 2026-04-29 20:57 407K
20260429T18Z_MSC_RDPS_WindDir_IsbL-0150_RLatLon0.09_PT054H.grib2 2026-04-29 20:57 410K
20260429T18Z_MSC_RDPS_WindDir_IsbL-0175_RLatLon0.09_PT054H.grib2 2026-04-29 20:57 435K
20260429T18Z_MSC_RDPS_WindDir_IsbL-0200_RLatLon0.09_PT054H.grib2 2026-04-29 20:57 447K
20260429T18Z_MSC_RDPS_WindDir_IsbL-0225_RLatLon0.09_PT054H.grib2 2026-04-29 20:57 443K
20260429T18Z_MSC_RDPS_WindDir_IsbL-0250_RLatLon0.09_PT054H.grib2 2026-04-29 20:57 444K
20260429T18Z_MSC_RDPS_WindDir_IsbL-0275_RLatLon0.09_PT054H.grib2 2026-04-29 20:57 466K
20260429T18Z_MSC_RDPS_WindDir_IsbL-0300_RLatLon0.09_PT054H.grib2 2026-04-29 20:57 465K
20260429T18Z_MSC_RDPS_WindDir_IsbL-0350_RLatLon0.09_PT054H.grib2 2026-04-29 20:57 485K
20260429T18Z_MSC_RDPS_WindDir_IsbL-0400_RLatLon0.09_PT054H.grib2 2026-04-29 20:57 504K
20260429T18Z_MSC_RDPS_WindDir_IsbL-0450_RLatLon0.09_PT054H.grib2 2026-04-29 20:57 520K
20260429T18Z_MSC_RDPS_WindDir_IsbL-0500_RLatLon0.09_PT054H.grib2 2026-04-29 20:57 539K
20260429T18Z_MSC_RDPS_WindDir_IsbL-0550_RLatLon0.09_PT054H.grib2 2026-04-29 20:57 555K
20260429T18Z_MSC_RDPS_WindDir_IsbL-0600_RLatLon0.09_PT054H.grib2 2026-04-29 20:57 582K
20260429T18Z_MSC_RDPS_WindDir_IsbL-0650_RLatLon0.09_PT054H.grib2 2026-04-29 20:57 625K
20260429T18Z_MSC_RDPS_WindDir_IsbL-0700_RLatLon0.09_PT054H.grib2 2026-04-29 20:57 672K
20260429T18Z_MSC_RDPS_WindDir_IsbL-0750_RLatLon0.09_PT054H.grib2 2026-04-29 20:57 721K
20260429T18Z_MSC_RDPS_WindDir_IsbL-0800_RLatLon0.09_PT054H.grib2 2026-04-29 20:57 779K
20260429T18Z_MSC_RDPS_WindDir_IsbL-0850_RLatLon0.09_PT054H.grib2 2026-04-29 20:57 846K
20260429T18Z_MSC_RDPS_WindDir_IsbL-0875_RLatLon0.09_PT054H.grib2 2026-04-29 20:57 872K
20260429T18Z_MSC_RDPS_WindDir_IsbL-0900_RLatLon0.09_PT054H.grib2 2026-04-29 20:57 887K
20260429T18Z_MSC_RDPS_WindDir_IsbL-0925_RLatLon0.09_PT054H.grib2 2026-04-29 20:57 895K
20260429T18Z_MSC_RDPS_WindDir_IsbL-0950_RLatLon0.09_PT054H.grib2 2026-04-29 20:57 892K
20260429T18Z_MSC_RDPS_WindDir_IsbL-0970_RLatLon0.09_PT054H.grib2 2026-04-29 20:57 899K
20260429T18Z_MSC_RDPS_WindDir_IsbL-0985_RLatLon0.09_PT054H.grib2 2026-04-29 20:57 908K
20260429T18Z_MSC_RDPS_WindDir_IsbL-1000_RLatLon0.09_PT054H.grib2 2026-04-29 20:57 920K
20260429T18Z_MSC_RDPS_WindDir_IsbL-1015_RLatLon0.09_PT054H.grib2 2026-04-29 20:57 934K
20260429T18Z_MSC_RDPS_WindGust-Max_AGL-10m_RLatLon0.09_PT054H.grib2 2026-04-29 20:57 952K
20260429T18Z_MSC_RDPS_WindGust-Min_AGL-10m_RLatLon0.09_PT054H.grib2 2026-04-29 20:57 966K
20260429T18Z_MSC_RDPS_WindGust_AGL-10m_RLatLon0.09_PT054H.grib2 2026-04-29 20:57 1.0M
20260429T18Z_MSC_RDPS_WindSpeed_AGL-10m_RLatLon0.09_PT054H.grib2 2026-04-29 20:57 830K
20260429T18Z_MSC_RDPS_WindSpeed_AGL-120m_RLatLon0.09_PT054H.grib2 2026-04-29 20:57 528K
20260429T18Z_MSC_RDPS_WindSpeed_AGL-40m_RLatLon0.09_PT054H.grib2 2026-04-29 20:57 532K
20260429T18Z_MSC_RDPS_WindSpeed_AGL-80m_RLatLon0.09_PT054H.grib2 2026-04-29 20:57 529K
20260429T18Z_MSC_RDPS_WindSpeed_IsbL-0001_RLatLon0.09_PT054H.grib2 2026-04-29 20:57 250K
20260429T18Z_MSC_RDPS_WindSpeed_IsbL-0005_RLatLon0.09_PT054H.grib2 2026-04-29 20:57 378K
20260429T18Z_MSC_RDPS_WindSpeed_IsbL-0010_RLatLon0.09_PT054H.grib2 2026-04-29 20:57 396K
20260429T18Z_MSC_RDPS_WindSpeed_IsbL-0020_RLatLon0.09_PT054H.grib2 2026-04-29 20:57 321K
20260429T18Z_MSC_RDPS_WindSpeed_IsbL-0030_RLatLon0.09_PT054H.grib2 2026-04-29 20:57 318K
20260429T18Z_MSC_RDPS_WindSpeed_IsbL-0050_RLatLon0.09_PT054H.grib2 2026-04-29 20:57 448K
20260429T18Z_MSC_RDPS_WindSpeed_IsbL-0100_RLatLon0.09_PT054H.grib2 2026-04-29 20:57 472K
20260429T18Z_MSC_RDPS_WindSpeed_IsbL-0150_RLatLon0.09_PT054H.grib2 2026-04-29 20:57 377K
20260429T18Z_MSC_RDPS_WindSpeed_IsbL-0175_RLatLon0.09_PT054H.grib2 2026-04-29 20:57 404K
20260429T18Z_MSC_RDPS_WindSpeed_IsbL-0200_RLatLon0.09_PT054H.grib2 2026-04-29 20:57 440K
20260429T18Z_MSC_RDPS_WindSpeed_IsbL-0225_RLatLon0.09_PT054H.grib2 2026-04-29 20:57 444K
20260429T18Z_MSC_RDPS_WindSpeed_IsbL-0250_RLatLon0.09_PT054H.grib2 2026-04-29 20:57 444K
20260429T18Z_MSC_RDPS_WindSpeed_IsbL-0275_RLatLon0.09_PT054H.grib2 2026-04-29 20:57 460K
20260429T18Z_MSC_RDPS_WindSpeed_IsbL-0300_RLatLon0.09_PT054H.grib2 2026-04-29 20:57 458K
20260429T18Z_MSC_RDPS_WindSpeed_IsbL-0350_RLatLon0.09_PT054H.grib2 2026-04-29 20:57 468K
20260429T18Z_MSC_RDPS_WindSpeed_IsbL-0400_RLatLon0.09_PT054H.grib2 2026-04-29 20:57 472K
20260429T18Z_MSC_RDPS_WindSpeed_IsbL-0450_RLatLon0.09_PT054H.grib2 2026-04-29 20:57 456K
20260429T18Z_MSC_RDPS_WindSpeed_IsbL-0500_RLatLon0.09_PT054H.grib2 2026-04-29 20:57 459K
20260429T18Z_MSC_RDPS_WindSpeed_IsbL-0550_RLatLon0.09_PT054H.grib2 2026-04-29 20:57 579K
20260429T18Z_MSC_RDPS_WindSpeed_IsbL-0600_RLatLon0.09_PT054H.grib2 2026-04-29 20:57 589K
20260429T18Z_MSC_RDPS_WindSpeed_IsbL-0650_RLatLon0.09_PT054H.grib2 2026-04-29 20:57 610K
20260429T18Z_MSC_RDPS_WindSpeed_IsbL-0700_RLatLon0.09_PT054H.grib2 2026-04-29 20:57 634K
20260429T18Z_MSC_RDPS_WindSpeed_IsbL-0750_RLatLon0.09_PT054H.grib2 2026-04-29 20:57 707K
20260429T18Z_MSC_RDPS_WindSpeed_IsbL-0800_RLatLon0.09_PT054H.grib2 2026-04-29 20:57 748K
20260429T18Z_MSC_RDPS_WindSpeed_IsbL-0850_RLatLon0.09_PT054H.grib2 2026-04-29 20:57 801K
20260429T18Z_MSC_RDPS_WindSpeed_IsbL-0875_RLatLon0.09_PT054H.grib2 2026-04-29 20:57 823K
20260429T18Z_MSC_RDPS_WindSpeed_IsbL-0900_RLatLon0.09_PT054H.grib2 2026-04-29 20:57 835K
20260429T18Z_MSC_RDPS_WindSpeed_IsbL-0925_RLatLon0.09_PT054H.grib2 2026-04-29 20:57 847K
20260429T18Z_MSC_RDPS_WindSpeed_IsbL-0950_RLatLon0.09_PT054H.grib2 2026-04-29 20:57 849K
20260429T18Z_MSC_RDPS_WindSpeed_IsbL-0970_RLatLon0.09_PT054H.grib2 2026-04-29 20:57 852K
20260429T18Z_MSC_RDPS_WindSpeed_IsbL-0985_RLatLon0.09_PT054H.grib2 2026-04-29 20:57 850K
20260429T18Z_MSC_RDPS_WindSpeed_IsbL-1000_RLatLon0.09_PT054H.grib2 2026-04-29 20:57 843K
20260429T18Z_MSC_RDPS_WindSpeed_IsbL-1015_RLatLon0.09_PT054H.grib2 2026-04-29 20:57 832K
20260429T18Z_MSC_RDPS_WindU_AGL-10m_RLatLon0.09_PT054H.grib2 2026-04-29 20:57 427K
20260429T18Z_MSC_RDPS_WindU_AGL-120m_RLatLon0.09_PT054H.grib2 2026-04-29 20:57 527K
20260429T18Z_MSC_RDPS_WindU_AGL-40m_RLatLon0.09_PT054H.grib2 2026-04-29 20:57 530K
20260429T18Z_MSC_RDPS_WindU_AGL-80m_RLatLon0.09_PT054H.grib2 2026-04-29 20:57 528K
20260429T18Z_MSC_RDPS_WindU_IsbL-0001_RLatLon0.09_PT054H.grib2 2026-04-29 20:57 242K
20260429T18Z_MSC_RDPS_WindU_IsbL-0005_RLatLon0.09_PT054H.grib2 2026-04-29 20:57 282K
20260429T18Z_MSC_RDPS_WindU_IsbL-0010_RLatLon0.09_PT054H.grib2 2026-04-29 20:57 294K
20260429T18Z_MSC_RDPS_WindU_IsbL-0020_RLatLon0.09_PT054H.grib2 2026-04-29 20:57 311K
20260429T18Z_MSC_RDPS_WindU_IsbL-0030_RLatLon0.09_PT054H.grib2 2026-04-29 20:57 311K
20260429T18Z_MSC_RDPS_WindU_IsbL-0050_RLatLon0.09_PT054H.grib2 2026-04-29 20:57 340K
20260429T18Z_MSC_RDPS_WindU_IsbL-0100_RLatLon0.09_PT054H.grib2 2026-04-29 20:57 426K
20260429T18Z_MSC_RDPS_WindU_IsbL-0150_RLatLon0.09_PT054H.grib2 2026-04-29 20:57 393K
20260429T18Z_MSC_RDPS_WindU_IsbL-0175_RLatLon0.09_PT054H.grib2 2026-04-29 20:57 419K
20260429T18Z_MSC_RDPS_WindU_IsbL-0200_RLatLon0.09_PT054H.grib2 2026-04-29 20:57 335K
20260429T18Z_MSC_RDPS_WindU_IsbL-0225_RLatLon0.09_PT054H.grib2 2026-04-29 20:57 337K
20260429T18Z_MSC_RDPS_WindU_IsbL-0250_RLatLon0.09_PT054H.grib2 2026-04-29 20:57 337K
20260429T18Z_MSC_RDPS_WindU_IsbL-0275_RLatLon0.09_PT054H.grib2 2026-04-29 20:57 350K
20260429T18Z_MSC_RDPS_WindU_IsbL-0300_RLatLon0.09_PT054H.grib2 2026-04-29 20:57 346K
20260429T18Z_MSC_RDPS_WindU_IsbL-0350_RLatLon0.09_PT054H.grib2 2026-04-29 20:57 354K
20260429T18Z_MSC_RDPS_WindU_IsbL-0400_RLatLon0.09_PT054H.grib2 2026-04-29 20:57 460K
20260429T18Z_MSC_RDPS_WindU_IsbL-0450_RLatLon0.09_PT054H.grib2 2026-04-29 20:57 463K
20260429T18Z_MSC_RDPS_WindU_IsbL-0500_RLatLon0.09_PT054H.grib2 2026-04-29 20:57 466K
20260429T18Z_MSC_RDPS_WindU_IsbL-0550_RLatLon0.09_PT054H.grib2 2026-04-29 20:57 471K
20260429T18Z_MSC_RDPS_WindU_IsbL-0600_RLatLon0.09_PT054H.grib2 2026-04-29 20:57 480K
20260429T18Z_MSC_RDPS_WindU_IsbL-0650_RLatLon0.09_PT054H.grib2 2026-04-29 20:57 482K
20260429T18Z_MSC_RDPS_WindU_IsbL-0700_RLatLon0.09_PT054H.grib2 2026-04-29 20:57 504K
20260429T18Z_MSC_RDPS_WindU_IsbL-0750_RLatLon0.09_PT054H.grib2 2026-04-29 20:57 530K
20260429T18Z_MSC_RDPS_WindU_IsbL-0800_RLatLon0.09_PT054H.grib2 2026-04-29 20:57 694K
20260429T18Z_MSC_RDPS_WindU_IsbL-0850_RLatLon0.09_PT054H.grib2 2026-04-29 20:57 611K
20260429T18Z_MSC_RDPS_WindU_IsbL-0875_RLatLon0.09_PT054H.grib2 2026-04-29 20:57 630K
20260429T18Z_MSC_RDPS_WindU_IsbL-0900_RLatLon0.09_PT054H.grib2 2026-04-29 20:57 643K
20260429T18Z_MSC_RDPS_WindU_IsbL-0925_RLatLon0.09_PT054H.grib2 2026-04-29 20:57 651K
20260429T18Z_MSC_RDPS_WindU_IsbL-0950_RLatLon0.09_PT054H.grib2 2026-04-29 20:57 648K
20260429T18Z_MSC_RDPS_WindU_IsbL-0970_RLatLon0.09_PT054H.grib2 2026-04-29 20:57 649K
20260429T18Z_MSC_RDPS_WindU_IsbL-0985_RLatLon0.09_PT054H.grib2 2026-04-29 20:57 785K
20260429T18Z_MSC_RDPS_WindU_IsbL-1000_RLatLon0.09_PT054H.grib2 2026-04-29 20:57 778K
20260429T18Z_MSC_RDPS_WindU_IsbL-1015_RLatLon0.09_PT054H.grib2 2026-04-29 20:57 817K
20260429T18Z_MSC_RDPS_WindV_AGL-10m_RLatLon0.09_PT054H.grib2 2026-04-29 20:57 426K
20260429T18Z_MSC_RDPS_WindV_AGL-120m_RLatLon0.09_PT054H.grib2 2026-04-29 20:57 524K
20260429T18Z_MSC_RDPS_WindV_AGL-40m_RLatLon0.09_PT054H.grib2 2026-04-29 20:57 527K
20260429T18Z_MSC_RDPS_WindV_AGL-80m_RLatLon0.09_PT054H.grib2 2026-04-29 20:57 525K
20260429T18Z_MSC_RDPS_WindV_IsbL-0001_RLatLon0.09_PT054H.grib2 2026-04-29 20:57 243K
20260429T18Z_MSC_RDPS_WindV_IsbL-0005_RLatLon0.09_PT054H.grib2 2026-04-29 20:57 285K
20260429T18Z_MSC_RDPS_WindV_IsbL-0010_RLatLon0.09_PT054H.grib2 2026-04-29 20:57 298K
20260429T18Z_MSC_RDPS_WindV_IsbL-0020_RLatLon0.09_PT054H.grib2 2026-04-29 20:57 315K
20260429T18Z_MSC_RDPS_WindV_IsbL-0030_RLatLon0.09_PT054H.grib2 2026-04-29 20:57 313K
20260429T18Z_MSC_RDPS_WindV_IsbL-0050_RLatLon0.09_PT054H.grib2 2026-04-29 20:57 339K
20260429T18Z_MSC_RDPS_WindV_IsbL-0100_RLatLon0.09_PT054H.grib2 2026-04-29 20:57 424K
20260429T18Z_MSC_RDPS_WindV_IsbL-0150_RLatLon0.09_PT054H.grib2 2026-04-29 20:57 393K
20260429T18Z_MSC_RDPS_WindV_IsbL-0175_RLatLon0.09_PT054H.grib2 2026-04-29 20:57 417K
20260429T18Z_MSC_RDPS_WindV_IsbL-0200_RLatLon0.09_PT054H.grib2 2026-04-29 20:57 335K
20260429T18Z_MSC_RDPS_WindV_IsbL-0225_RLatLon0.09_PT054H.grib2 2026-04-29 20:57 336K
20260429T18Z_MSC_RDPS_WindV_IsbL-0250_RLatLon0.09_PT054H.grib2 2026-04-29 20:57 334K
20260429T18Z_MSC_RDPS_WindV_IsbL-0275_RLatLon0.09_PT054H.grib2 2026-04-29 20:57 347K
20260429T18Z_MSC_RDPS_WindV_IsbL-0300_RLatLon0.09_PT054H.grib2 2026-04-29 20:57 343K
20260429T18Z_MSC_RDPS_WindV_IsbL-0350_RLatLon0.09_PT054H.grib2 2026-04-29 20:57 353K
20260429T18Z_MSC_RDPS_WindV_IsbL-0400_RLatLon0.09_PT054H.grib2 2026-04-29 20:57 456K
20260429T18Z_MSC_RDPS_WindV_IsbL-0450_RLatLon0.09_PT054H.grib2 2026-04-29 20:57 459K
20260429T18Z_MSC_RDPS_WindV_IsbL-0500_RLatLon0.09_PT054H.grib2 2026-04-29 20:57 463K
20260429T18Z_MSC_RDPS_WindV_IsbL-0550_RLatLon0.09_PT054H.grib2 2026-04-29 20:57 467K
20260429T18Z_MSC_RDPS_WindV_IsbL-0600_RLatLon0.09_PT054H.grib2 2026-04-29 20:57 459K
20260429T18Z_MSC_RDPS_WindV_IsbL-0650_RLatLon0.09_PT054H.grib2 2026-04-29 20:57 478K
20260429T18Z_MSC_RDPS_WindV_IsbL-0700_RLatLon0.09_PT054H.grib2 2026-04-29 20:57 500K
20260429T18Z_MSC_RDPS_WindV_IsbL-0750_RLatLon0.09_PT054H.grib2 2026-04-29 20:57 524K
20260429T18Z_MSC_RDPS_WindV_IsbL-0800_RLatLon0.09_PT054H.grib2 2026-04-29 20:57 560K
20260429T18Z_MSC_RDPS_WindV_IsbL-0850_RLatLon0.09_PT054H.grib2 2026-04-29 20:57 607K
20260429T18Z_MSC_RDPS_WindV_IsbL-0875_RLatLon0.09_PT054H.grib2 2026-04-29 20:57 627K
20260429T18Z_MSC_RDPS_WindV_IsbL-0900_RLatLon0.09_PT054H.grib2 2026-04-29 20:57 641K
20260429T18Z_MSC_RDPS_WindV_IsbL-0925_RLatLon0.09_PT054H.grib2 2026-04-29 20:57 647K
20260429T18Z_MSC_RDPS_WindV_IsbL-0950_RLatLon0.09_PT054H.grib2 2026-04-29 20:57 785K
20260429T18Z_MSC_RDPS_WindV_IsbL-0970_RLatLon0.09_PT054H.grib2 2026-04-29 20:57 785K
20260429T18Z_MSC_RDPS_WindV_IsbL-0985_RLatLon0.09_PT054H.grib2 2026-04-29 20:57 783K
20260429T18Z_MSC_RDPS_WindV_IsbL-1000_RLatLon0.09_PT054H.grib2 2026-04-29 20:57 776K
20260429T18Z_MSC_RDPS_WindV_IsbL-1015_RLatLon0.09_PT054H.grib2 2026-04-29 20:57 814K